Adecco Brussels Ekiden
CAP Brussels, 19/10/2019, BEL
Ekiden - Resultaat
42.195km 
Categorie
PosNrNaamLeef.ClubTijdTkmGem.PlaatsNaamGemeente
1.107SAUCONY 2:11:113:07 19.301am
2.167CABW HOMMES 1 CABW2:16:343:15 18.541cm
3.134HERV AC - TEAM A HERV AC2:17:033:15 18.472cm
4.118TEAM VANDEWATTIJNE ACG2:23:353:25 17.633cm
5.146DUFFEL ATLETIEKCLUB MANNE DUFF2:23:543:25 17.594cm
6.180AVMO HEREN 1 AVMO2:24:453:26 17.495cm
7.133HERV AC - TEAM B HERV AC2:25:273:27 17.416cm
8.157CABW HOMMES 2 CABW2:26:193:29 17.307cm
9.124ADD GUYS ADD - ATLETIEKC2:26:513:29 17.248cm
10.128SMARTRUNNINGTEAM VOLH2:26:543:29 17.249cm
11.112ACP SEN ACP2:27:083:30 17.2110cm
12.171AVR HEREN 1 AVR2:27:403:30 17.1511cm
13.117ARCH ARCH2:27:563:31 17.1112cm
14.873NMBS HR RAIL LOCOMOTIEF NMBS HR RAIL LO2:27:573:31 17.111bm
15.160XAVT AVT2:30:443:35 16.801cx
16.123ROBA TURTLES ROBA2:31:233:36 16.7213cm
17.103FYELLOW ARMADA LADIES 2:31:403:36 16.691af
18.151CSDY WHITE KENYANS CS DYLE2:31:483:36 16.6814cm
19.839XF-SPORT 2:31:553:37 16.671ax
20.131HAUTES FAGNES HOMMES HAUTES FAGNES2:33:213:39 16.5115cm
21.141AC PEGASUS MANNEN ATLETIEK CLUB P2:34:323:40 16.3816cm
22.761BORN TO RUN A SPRL BORN TO RU2:35:053:41 16.332bm
23.114ACP MASTERS ACP2:35:433:42 16.2617cm
24.809PFIZER_FAST PFIZER2:36:413:43 16.163bm
25.173CS DYLE TEAM PATATE CS DYLE2:36:583:44 16.1318cm
26.165BEERSCHOT BEERSCHOT2:37:363:45 16.0719cm
27.853JC OETINGEN 2:38:093:45 16.012am
28.116SQUADRA PETRALIA GIOVANIL AVMO2:38:123:45 16.0020cm
29.144CABW HOMMES 3 CABW2:38:283:46 15.9821cm
30.831XFAST RUNNING CRIMINALS 2:40:253:49 15.782ax
31.132XHERV AC - TEAM C HERV AC2:41:493:51 15.652cx
32.179XKONINKLIJKE LEBBEEKSE ATL KONINKLIJKE LEB2:42:263:51 15.593cx
33.162FCABW DAMES 1 CABW2:43:533:54 15.451cf
34.665NMBS HR RAIL INTERCITY MBS HR RAIL2:44:143:54 15.424bm
35.170FAVR DAMES 1 AVR2:44:333:54 15.392cf
36.119XVOLHARDING TEAM 1 VOLHARDING2:45:233:56 15.314cx
37.178FDCLA DAMES 1 DARING CLUB LEU2:45:343:56 15.293cf
38.125XADD MIX ADD - ATLETIEKC2:46:043:57 15.255cx
39.842GAG 2:47:043:58 15.153am
40.505CENTRICA BUSINESS SOLUTIO CENTRICA BUSINE2:47:123:58 15.145bm
41.158AVR HEREN 2 AVR2:47:393:59 15.1022cm
42.159RCB - CA VA D'ALLER, FIEU 2:47:483:59 15.094am
43.773UCB CLUB - DREAM TEAM UCB PHARMA2:47:503:59 15.086bm
44.172FAS RIEME VROUWENTEAM AS RIEME2:48:404:00 15.014cf
45.138XDAC TEAM 1 DAC2:48:574:01 14.996cx
46.485KBC TRIPLE A KBC2:49:184:01 14.957bm
47.714OMP 5 OMP2:49:204:01 14.958bm
48.212ADECCO -TEAM 3M-1 ADECCO2:49:444:02 14.929bm
49.614ICSENSE1 ICSENSE2:50:264:03 14.8610bm
50.127RUN FOR RESC BOYS RESC2:50:404:03 14.8323cm
DNF: abandon; DSQ: disqualifié; Vitesse en km/h
24/02/2020 - 08:06 - 1003 Inputs
ChronoRace - Electronic Timing SPRL
http://www.chronorace.be

Page 1 / 21  
Adecco Brussels Ekiden
CAP Brussels, 19/10/2019, BEL
Ekiden - Resultaat
42.195km 
Categorie
PosNrNaamLeef.ClubTijdTkmGem.PlaatsNaamGemeente
51.156ATLEMO2 2:50:554:04 14.8124cm
52.161FACG CHICKIES ACG2:50:574:04 14.815cf
53.799VPK RACING VPK PAPER2:51:524:05 14.7311bm
54.718XORTEC BELGIUM A ORTEC2:52:474:06 14.651bx
55.168XAVR DAMES 2 AVR2:52:504:06 14.657cx
56.866MASPOE RUNNING TEAM MANNE 2:52:534:06 14.645am
57.149DUFFEL ATLETIEKCLUB RAF T 2:53:324:07 14.5925cm
58.522COLRUYT GROUP TEAM CSB 2:54:134:08 14.536am
59.728PESSEMIER TRANSPORT PESSEMIER NV2:54:534:09 14.4812bm
60.135XDAC TEAM 2 DAC2:55:104:10 14.458cx
61.857JUST DO IT 2:55:284:10 14.437am
62.181FROBA ROBA2:55:364:10 14.426cf
63.1089EASYWOOD RUNNERS 2:56:004:11 14.398am
64.762XBORN TO RUN B SPRL BORN TO RU2:56:064:11 14.382bx
65.1032XTEAM 1 MATERIALISE2:57:004:12 14.303bx
66.166WAASMUNSTER LOOPT 2:57:214:13 14.289am
67.169FCSDYLE TEAM GAZELLES CSDYLE2:57:214:13 14.287cf
68.143XAC DUFFEL A.C. DUFFEL2:57:394:13 14.259cx
69.868FMASPOE RUNNING TEAM VROUW 2:58:264:14 14.192af
70.115XACP MIX 2 ACP MIX 22:58:554:15 14.1510cx
71.304XEU TEAM GEH REGIO FLYING 2:59:284:16 14.113ax
72.121XACP MIX 1 3:00:314:17 14.0311cx
73.147FDUFFEL ATLETIEKCLUB VROUW DUFF3:01:164:18 13.978cf
74.648KARTESIA KARTESIA3:01:294:19 13.9513bm
75.258XSKEYES 1 SKEYES3:01:514:19 13.924bx
76.1100XTEAM SPORTHUIS NOKERE 3:02:224:20 13.884ax
77.526COLRUYT GROUP THE MOJO’S COLRUYT GROUP S3:02:334:20 13.8714bm
78.137XDAC TEAM 3 DAC3:02:424:20 13.8612cx
79.1092ELIA 2 3:04:054:22 13.7510am
80.686XNATO DREAM TEAM NATO3:04:144:22 13.745bx
81.844XH3O FAST 3:04:214:23 13.735ax
82.175FAC HAMME DAMESTEAM AC HAMMA3:04:454:23 13.709cf
83.397BNP PARIBAS FORTIS BNP PARIBAS FOR3:04:544:23 13.6915bm
84.154XRCB CRABES ELITES 3:05:004:24 13.686ax
85.316XEU TEAM GEH – THE MOVERS 3:05:084:24 13.687ax
86.660LOBI LOBI3:05:264:24 13.6516bm
87.246XSMART SPORT CLUB (BLAUW T 3:05:434:25 13.638ax
88.1093ELIA 3 3:05:584:25 13.6111am
89.833XFLY RUNNING CRIMINALS 3:06:074:25 13.609ax
90.130FHAUTES FAGNES DAMES HAUTES FAGNES3:06:544:26 13.5510cf
91.663XMACOBO-STABO MACOBO-STABO3:07:524:28 13.486bx
92.245XSMART SPORT CLUB - THE WH 3:09:254:30 13.3710ax
93.240STO FRANCE STO SAS3:09:304:30 13.3617bm
94.105XNTT BELGIUM FAST TEAM NTT BELGIUM3:09:354:30 13.357bx
95.209SPRING ADECCO3:09:384:30 13.3518bm
96.356XAIR LIQUIDE READY AND FI AIR LIQUIDE3:09:424:30 13.358bx
97.155XATLEMO 3:09:434:30 13.3513cx
98.186XADECCO_VAN MARCKE 1 ADECCO3:10:064:31 13.329bx
99.902XDELOITTE CYBER BLACK 3:10:284:31 13.2910bx
100.919XTHE ING BULLETS 3:10:414:32 13.2811bx
DNF: abandon; DSQ: disqualifié; Vitesse en km/h
24/02/2020 - 08:06 - 1003 Inputs
ChronoRace - Electronic Timing SPRL
http://www.chronorace.be

Page 2 / 21  
Adecco Brussels Ekiden
CAP Brussels, 19/10/2019, BEL
Ekiden - Resultaat
42.195km 
Categorie
PosNrNaamLeef.ClubTijdTkmGem.PlaatsNaamGemeente
101.926ORANGE TURTLES 3.0 3:10:594:32 13.2619bm
102.174XARAC ARAC3:11:204:33 13.2314cx
103.538CULIRUNNERS CULINOR3:11:214:33 13.2320bm
104.838XFREAKY RUNNING CRIMINALS 3:11:414:33 13.2111ax
105.840XFUN RUNNING CRIMINALS 3:11:524:33 13.2012ax
106.142XRCB CBG 3:12:194:34 13.1613ax
107.1091ELIA 1 3:12:404:34 13.1412am
108.867XMASPOE RUNNING TEAM MIX 3:12:534:35 13.1314ax
109.798VPK HQ VPK PAPER3:13:124:35 13.1021bm
110.744SIEMENS ITS SIEMENS3:13:234:35 13.0922bm
111.960XING WAPI FAST 3:13:284:36 13.0912bx
112.150XBEERSCHOT 2 3:13:404:36 13.0715ax
113.1069X#POLISHRUN 3:14:054:36 13.0516ax
114.841XFURIOUS RUNNING CRIMINALS 3:14:284:37 13.0217ax
115.250XSMART SPORT CLUB (ROZE TE 3:14:314:37 13.0218ax
116.140FAC PEGASUS VROUWEN ATLETIEK CLUB P3:14:414:37 13.0011cf
117.1057WAVENET WAVENET3:14:454:37 13.0023bm
118.1016XCM ZORG CHRISTELIJKE MU3:14:534:38 12.9913bx
119.908XING INVESTMENTS 3:14:564:38 12.9914bx
120.685PR UNITED NATIONALE BANK 3:15:004:38 12.9824bm
121.871XMINOR-NDAKO SPORT 3:15:094:38 12.9719ax
122.765STEF SAINTES STEF TRANSPORT 3:15:114:38 12.9725bm
123.1129SOPRA STERIA 2 SOPRA STERIA3:15:294:38 12.9526bm
124.576EMERSON SPIKES EMERSON PROCESS3:17:214:41 12.8327bm
125.220ADECCO_DON(U)'T WALK ADECCO3:17:344:41 12.8128bm
126.248XSMART SPORT CLUB (GROENE 3:17:364:41 12.8120ax
127.520XCOLRUYT GROUP R&D&I 3:18:004:42 12.7921ax
128.419CANDRIAM - TEAM 3 CANDRIAM3:18:004:42 12.7929bm
129.854JRC-GEEL COMPET 3:18:064:42 12.7813am
130.284XEU TEAM GEH – COMP_A_CERS 3:18:164:42 12.7722ax
131.247XSMART SPORT CLUB (GELE TE 3:18:214:43 12.7623ax
132.424HEIDELBERGCEMENT - LES BÉ CBR3:18:464:43 12.7430bm
133.554XAMBIENTE DEPARTEMENT OMG3:18:504:43 12.7315bx
134.1014CM REFAC CHRISTELIJKE MU3:19:134:44 12.7131bm
135.1052XD.A.S. BRUXELLES DAS3:19:144:44 12.7116bx
136.503XCENTRAN CENTRAN3:19:164:44 12.7117bx
137.715ALL YOU NEED IS RUN ORANGE BELGIUM3:19:254:44 12.7032bm
138.204ADECCO_TEAM RENEWI ADECCO3:19:344:44 12.6933bm
139.1094XELIA 4 3:19:364:44 12.6824ax
140.530XCORONA DIRECT CORONA DIRECT3:19:404:44 12.6818bx
141.747XSIEMENS SI ROADRUNNERS SIEMENS3:19:484:45 12.6719bx
142.996XRUN, WOUTER, RUN! 3:20:154:45 12.6425ax
143.731XPIDPA - COOL RUNNINGS PIDPA3:20:244:45 12.6320bx
144.136XDAC TEAM 4 DAC3:20:264:45 12.6315cx
145.846XHEILIG HART LEUVEN 3:20:314:46 12.6326ax
146.249XSMART SPORT CLUB (RODE TE 3:20:354:46 12.6227ax
147.404XBOUWPUNT VAN DER GUCHT 1 BOUWPUNT VAN DE3:20:594:46 12.6021bx
148.872XNEEPEEJEES 3:21:044:46 12.5928ax
149.935SIX AND THE CITY 3:21:044:46 12.5934bm
150.283XEU TEAM GEH – COMP LAZY F 3:21:174:47 12.5829ax
DNF: abandon; DSQ: disqualifié; Vitesse en km/h
24/02/2020 - 08:06 - 1003 Inputs
ChronoRace - Electronic Timing SPRL
http://www.chronorace.be

Page 3 / 21  
Adecco Brussels Ekiden
CAP Brussels, 19/10/2019, BEL
Ekiden - Resultaat
42.195km 
Categorie
PosNrNaamLeef.ClubTijdTkmGem.PlaatsNaamGemeente
151.849XINBIO 3:21:234:47 12.5730ax
152.423CAPGEMINI 3 CAPGEMINI BELGI3:21:254:47 12.5735bm
153.701NUMECA 4 NUMECA INTERNAT3:21:314:47 12.5636bm
154.279XEU TEAM GEH – COMP (FAST? 3:21:374:47 12.5631ax
155.548XDP-FIN DEGROOF PETERCA3:21:414:47 12.5522bx
156.1039XNPE FEDEX EXPRESS3:21:434:47 12.5523bx
157.767TRASIS TEAM TRASIS3:21:484:47 12.5537bm
158.1036EXCEL-ERATORS FEDEX EXPRESS3:21:594:48 12.5338bm
159.524COLRUYT GROUP FINE FOOD T COLRUYT GROUP3:22:124:48 12.5239bm
160.763XBORN TO RUN C SPRL BORN TO RU3:22:134:48 12.5224bx
161.409XBE-LB-AUTO BRUXELLES ENVIR3:22:264:48 12.5125bx
162.688XNELSONRUNNERS - LIMBO LIM NELSON LABS NV3:22:344:49 12.5026bx
163.251XSMART SPORT CLUB (ZWARTE 3:22:474:49 12.4932ax
164.676XWE MO>E YOU MERCEDES-BENZ B3:23:004:49 12.4727bx
165.801FOCUS SUPPORT PFIZER3:23:064:49 12.4740bm
166.700XNUMECA 3 NUMECA INTERNAT3:23:154:50 12.4628bx
167.387XBAM TK SNEL BAM CONTRACTORS3:23:184:50 12.4529bx
168.850XINSURANCE EUROPE 3:23:214:50 12.4533ax
169.578XTEAM ENGIE AXIMA 2 ENGIE AXIMA3:23:354:50 12.4430bx
170.878PINO 3:23:404:50 12.4314am
171.177XYESS WE CAN VAC3:23:554:50 12.4216cx
172.294XEU TEAM GEH – HR CAB RUNN 3:23:554:50 12.4234ax
173.461KBC THE MO'S KBC3:23:584:51 12.4141bm
174.394XBEEFAST BIOBEST GROUP N3:24:074:51 12.4031bx
175.1112WE ARE SPARTA@1 3:24:144:51 12.4015am
176.736PYTHON PREDICTIONS PYTHON PREDICTI3:24:154:51 12.4042bm
177.907ING RÉGION CENTRE 3:24:254:51 12.3943bm
178.724THE RUNNING MACHINES P&V ASSURANCES 3:24:294:51 12.3844bm
179.1074XANTIGIFCENTRUM 3:24:394:51 12.3735ax
180.226XEY PARIS MARATHON RUNNERS 3:24:454:52 12.3636ax
181.348XVLAIO TEAM 1 AGENTSCHAP INNO3:25:204:52 12.3332bx
182.384AVERY DENNISON TEAM AVERY DENNISON3:25:244:53 12.3345bm
183.845XH3O ON THE RUN 3:25:264:53 12.3237ax
184.575XEMERSON SPARKS EMERSON PROCESS3:25:274:53 12.3233bx
185.807XPFIZER EOS PFIZER MANUFACT3:25:344:53 12.3234bx
186.877XOKKE ELZENHOF 3:25:404:53 12.3138ax
187.970XING - GO DAS 3:25:444:53 12.3135bx
188.535XCREDENDO UAM CREDENDO3:25:524:53 12.3036bx
189.388XDE "FIEREH" LOPERS BAM CONTRACTORS3:26:004:53 12.2937bx
190.882XPWC 3 3:26:124:54 12.2839ax
191.847HSBC BELGIUM 3:26:194:54 12.2716am
192.687XNELSONRUNNERS - AFGEVINKT NELSON LABS NV3:26:274:54 12.2638bx
193.349VLAIO TEAM 2 AGENTSCHAP INNO3:26:304:54 12.2646bm
194.703XOIP 1 OIP NV3:26:324:54 12.2639bx
195.456KBC TREASURY LIGHT KBC3:26:364:54 12.2547bm
196.241XSTO LOTUSAN STO NV3:26:504:55 12.2440bx
197.569ECOPHOS 2 ECOPHOS3:26:534:55 12.2448bm
198.955XTHE FLYING BANKERS 3:26:544:55 12.2441bx
199.815XZAVENTEM RUNNERS PFIZER3:27:004:55 12.2342bx
200.317XEU TEAM GEH – THE SPILLOV 3:27:094:55 12.2240ax
DNF: abandon; DSQ: disqualifié; Vitesse en km/h
24/02/2020 - 08:06 - 1003 Inputs
ChronoRace - Electronic Timing SPRL
http://www.chronorace.be

Page 4 / 21  
Adecco Brussels Ekiden
CAP Brussels, 19/10/2019, BEL
Ekiden - Resultaat
42.195km 
Categorie
PosNrNaamLeef.ClubTijdTkmGem.PlaatsNaamGemeente
201.287XEU TEAM GEH – CYBER RUNNI 3:27:504:56 12.1841ax
202.1083XCG RUNNIMODOS 3:27:504:56 12.1842ax
203.870XMINOR-NDAKO LEUVEN 3:27:504:56 12.1843ax
204.739DUTCH RUNAULT RUNNERS RENAULT BELGIE 3:27:584:56 12.1749bm
205.301XEU TEAM GEH - NEW GENERAT 3:28:174:57 12.1644ax
206.344XDE SLOEFKES ACTISOC - BPOST3:28:204:57 12.1543bx
207.264XDPB2 BANK J. VAN BRE3:28:234:57 12.1544bx
208.266XJVB 6 BANK J. VAN BRE3:28:234:57 12.1545bx
209.541XDATA MINDED RUNNING AT SC DATA MINDED3:28:324:57 12.1446bx
210.303XEU TEAM GEH - RATPACK RUN 3:28:364:57 12.1445ax
211.571HERMES ECS SA TEAM FAST ECS HERMÈS SA3:28:374:57 12.1450bm
212.325XEU TEAM GEH FUNRUN 3:28:394:57 12.1346ax
213.379XATTENTIA 1 ATTENTIA NV3:28:424:57 12.1347bx
214.532XCREDENDO LCL CREDENDO3:28:434:57 12.1348bx
215.977XUNITED RUNNERS 3:28:534:58 12.1249bx
216.1123XAW(TC) EUROPE_1 AW EUROPE3:28:534:58 12.1250bx
217.288XEU TEAM GEH - EACEA 3:28:594:58 12.1247ax
218.771XUCB CLUB - CRAKERS UCB PHARMA3:28:594:58 12.1151bx
219.740XBELGIAN RUNAULT RUNNERS RENAULT BELGIË 3:29:024:58 12.1152bx
220.542XDATACAMP DATACAMP3:29:054:58 12.1153bx
221.737XQBE EUROPE QBE EUROPE3:29:064:58 12.1154bx
222.843XGEUKENS-LAMBAERTS 3:29:084:58 12.1148ax
223.694XNLMK EUROPE NLMK BELGIUM3:29:224:58 12.0955bx
224.748XSIEMENS SI RSS SIEMENS3:29:384:59 12.0856bx
225.957XTHE ROAD RUNNERS 3:29:384:59 12.0857bx
226.437XPRAYON PUURS PRAYON SA3:29:544:59 12.0658bx
227.861XLES FRÈRES BOURRÉS 3:29:574:59 12.0649ax
228.697XN-SIDE 2 N-SIDE S.A.3:30:044:59 12.0559bx
229.216XADECCO_ LA LORRAINE MORLA ADECCO ONSITE L3:30:064:59 12.0560bx
230.441XKBC DISCOVER 2 KBC3:30:114:59 12.0561bx
231.640XISABEL RUNNERS ISABEL NV3:30:195:00 12.0462bx
232.462XKBC 2 KBC3:30:195:00 12.0463bx
233.527COLRUYT BOUW TEAM COLRUYTGROUP3:30:285:00 12.0351bm
234.702XOBASI OBASI3:30:315:00 12.0364bx
235.368XAPB PLOEG 4 APB3:30:325:00 12.0365bx
236.691XNELSONRUNNERS - SUPERRUSH NELSON LABS NV3:30:355:00 12.0266bx
237.588XLES AA FIDUCRE3:30:445:00 12.0167bx
238.727PARTENA PROFESSIONAL PARTENA PROFESS3:30:455:00 12.0152bm
239.577XTEAM ENGIE AXIMA 1 ENGIE AXIMA3:30:505:00 12.0168bx
240.148XDUFFEL ATLETIEKCLUB RAF T DUFF3:30:555:00 12.0017cx
241.340XEU TEAM GEH-SASAKA 3:30:575:00 12.0050ax
242.1130SOPRA STERIA 1 SOPRA STERIA3:31:175:01 11.9853bm
243.608XHDI - TALANX 1 HDI GLOBAL3:31:195:01 11.9869bx
244.643XISS TEAM 1 ISS FACILITY SE3:31:225:01 11.9870bx
245.556XDB CORPORATE BANKING & FI DEUTSCHE BANK A3:31:345:01 11.9771bx
246.501XCELYAD N°1 CELYAD3:31:355:01 11.9772bx
247.308XEU TEAM GEH - RODENBACH R 3:31:365:01 11.9751ax
248.392XBEPHARBEL BEPHARBEL3:31:385:01 11.9673bx
249.704XOIP 2 OIP NV3:31:415:02 11.9674bx
250.764XSTATER BELGIUM STATER BELGIUM 3:31:525:02 11.9575bx
DNF: abandon; DSQ: disqualifié; Vitesse en km/h
24/02/2020 - 08:06 - 1003 Inputs
ChronoRace - Electronic Timing SPRL
http://www.chronorace.be

Page 5 / 21  
Adecco Brussels Ekiden
CAP Brussels, 19/10/2019, BEL
Ekiden - Resultaat
42.195km 
Categorie
PosNrNaamLeef.ClubTijdTkmGem.PlaatsNaamGemeente
251.486XKBC HIGH INTEREST RUNNERS KBC3:31:525:02 11.9576bx
252.1110XWE ARE SPARTA! @2 3:32:025:02 11.9452ax
253.426HEIDELBERGCEMENT - TEAM 2 CBR3:32:065:02 11.9454bm
254.1024XMAGICS++ MATERIALISE3:32:125:02 11.9377bx
255.668XFLEET PKW ROAD RUNNERS MERCEDES-BENZ B3:32:315:03 11.9178bx
256.968XORANGE ARROW 3:32:345:03 11.9179bx
257.473KBC - THE RETURN OF GCI KBC3:32:375:03 11.9155bm
258.616ICSENSE3 ICSENSE3:32:395:03 11.9156bm
259.447XKBC - OUTCASTS KBC3:32:485:03 11.9080bx
260.427XHEIDELBERGCEMENT - TEAM 3 CBR3:32:495:03 11.9081bx
261.1121XAW(TC) EUROPE_3 AW EUROPE3:32:545:03 11.8982bx
262.567EASI 2 EASI3:32:595:03 11.8957bm
263.300XEU TEAM GEH – LOS SPEEDY 3:33:035:03 11.8853ax
264.637XENERGY@IPSOS IPSOS NV3:33:055:03 11.8883bx
265.892XRUN4FUN SPEEDTEAM 3:33:145:04 11.8754ax
266.698XNUMECA 1 NUMECA INTERNAT3:33:215:04 11.8784bx
267.1101THE CIBEES 3:33:245:04 11.8617am
268.636INTERNATIONAL POST CORPOR INTERNATIONAL P3:33:275:04 11.8658bm
269.442XKBC DISCOVER 1 KBC3:33:325:04 11.8685bx
270.475XKBC CLUSTER HALLE-ASSE 1 KBC3:33:355:04 11.8586bx
271.557XDB CORPORATE BANKING & FI DEUTSCHE BANK A3:33:365:04 11.8587bx
272.716XO DO IT ORANGE BELGIUM3:34:015:05 11.8388bx
273.435XPRAYON ONE TEAM PRAYON SA3:34:065:05 11.8389bx
274.104NTT BELGIUM TEAM 2 NTT BELGIUM3:34:095:05 11.8259bm
275.290XEU TEAM GEH - EDPS GIOVAN 3:34:145:05 11.8255ax
276.881XPWC 2 3:34:175:05 11.8156ax
277.164XDE VAN LOOYKENS 3:34:215:05 11.8157ax
278.359XTOO MUCH AIR AIR PRODUCTS3:34:385:06 11.8090bx
279.859XLES ÉPICOURSIENS 3:34:475:06 11.7958ax
280.491XKBC LEGS KBC3:34:485:06 11.7991bx
281.615ICSENSE2 ICSENSE3:34:505:06 11.7960bm
282.1041XRUNNERS HIGH FEDEX EXPRESS3:34:595:06 11.7892bx
283.865XLES MARATHONNERES 3:35:105:06 11.7759ax
284.647XJ&J ROCKETS JOHNSON & JOHNS3:35:315:07 11.7593bx
285.796XVOLVO CAR BELUX 2 VOLVO CAR BELUX3:35:335:07 11.7594bx
286.227EYLABA 3:35:345:07 11.7518am
287.835XFMO SEPARATISTS 3:35:355:07 11.7460ax
288.438PRAYON TAZOTEAM PRAYON SA3:35:355:07 11.7461bm
289.625XBEOBANK TEAM 4 BEOBANK3:35:395:07 11.7495bx
290.560XDE FUNKEEPERS DPG MEDIA NV3:35:395:07 11.7496bx
291.745XSIEMENS KAP SIEMENS3:35:485:07 11.7397bx
292.385XAXA TEAM AXA TEAM3:35:485:07 11.7398bx
293.362XMARADEUS AMADEUS BENELUX3:35:525:07 11.7399bx
294.378ATHLON ATHLETICS ATHLON CAR LEAS3:35:595:08 11.7262bm
295.338XEU TEAM GEH_IAMONFIRE 3:35:595:08 11.7261ax
296.1027XMEDICAL DEVICE R&D MATERIALISE3:36:005:08 11.72100bx
297.508CERTAM | LEXAM 2 CERTAM BEDRIJFS3:36:045:08 11.7263bm
298.1095XENSAI A 3:36:065:08 11.7262ax
299.818XVRT DIGITAAL PRODUCTIECEN VRT3:36:105:08 11.71101bx
300.261XDPB5 BANK J. VAN BRE3:36:145:08 11.71102bx
DNF: abandon; DSQ: disqualifié; Vitesse en km/h
24/02/2020 - 08:06 - 1003 Inputs
ChronoRace - Electronic Timing SPRL
http://www.chronorace.be

Page 6 / 21  
Adecco Brussels Ekiden
CAP Brussels, 19/10/2019, BEL
Ekiden - Resultaat
42.195km 
Categorie
PosNrNaamLeef.ClubTijdTkmGem.PlaatsNaamGemeente
301.1096XENSAI B 3:36:165:08 11.7163ax
302.222XBOULET & PEKET 3:36:165:08 11.7164ax
303.502XCELYAD N°2 CELYAD3:36:235:08 11.70103bx
304.627XDERBIRUNNERS IMPERBEL3:36:285:08 11.70104bx
305.357XAIR FOR RUNNING AIR PRODUCTS3:36:335:08 11.69105bx
306.733XPRIMANED BELGIUM PRIMANED BELGIU3:36:395:09 11.69106bx
307.238NVISO'S FALCONS NVISO3:36:465:09 11.6864bm
308.533XCREDENDO MIX CREDENDO3:36:525:09 11.67107bx
309.471KBC - RUDI KBC3:36:575:09 11.6765bm
310.581XCORLUYT GROUP DATS 24.2 EOLY, COLRUYT G3:36:595:09 11.67108bx
311.1084XDAWASVLUGGEDAAN 3:37:065:09 11.6665ax
312.430PRAYON TO THE MOON PRAYON3:37:065:09 11.6666bm
313.314XEU TEAM GEH – THE AUTOMAT 3:37:095:09 11.6666ax
314.481XKBC THE GREEN TEAM KBC3:37:115:09 11.66109bx
315.410BE-LB-INSP 1 BRUXELLES ENVIR3:37:125:09 11.6667bm
316.1105XTHIS IS SPARTA@4 3:37:205:10 11.6567ax
317.1054XD.A.S. LIÈGE DAS3:37:225:10 11.65110bx
318.120XVOLHARDING 2 VOLHARDING3:37:245:10 11.6518cx
319.769XTUI BELGIUM TUI3:37:245:10 11.65111bx
320.367XAPB PLOEG 3 APB3:37:255:10 11.65112bx
321.958LES ORANGES PRESSÉS 3:37:265:10 11.6468bm
322.708XOLAF 4 OLAF (EUROPEAN 3:37:275:10 11.64113bx
323.1111XWE ARE SPARTA! @3 3:37:295:10 11.6468ax
324.101XBASF TORNADOS 3:37:395:10 11.6369ax
325.768XTREES&MOREBVBA TREES&MOREBVBA3:37:505:10 11.62114bx
326.639XIREX 2 IREX CONSULTING3:38:035:11 11.61115bx
327.345XFINANCE TORNADOS ACTISOC - BPOST3:38:035:11 11.61116bx
328.677XMIELE POWERDISK MIELE3:38:115:11 11.60117bx
329.480XKBC CEC RUNNERS KBC3:38:175:11 11.60118bx
330.652XKINEPRAKTIJK JORIS VAN BA KINEPRAKTIJK JO3:38:245:11 11.59119bx
331.299XEU TEAM GEH – LE GRAND HU 3:38:255:11 11.5970ax
332.664ONE MARS MARS BELGIUM NV3:38:345:11 11.5869bm
333.1033XTEAM 2 MATERIALISE3:38:345:11 11.58120bx
334.1043XX-RAY VISION FEDEX EXPRESS3:38:365:11 11.58121bx
335.488XKBC ZAVENTEAM KBC3:38:405:11 11.58122bx
336.381XATTENTIA 3 ATTENTIA NV3:38:415:11 11.58123bx
337.900XDELOITTE ITX 3:38:445:12 11.57124bx
338.235XVAT/CUSTOMS 1 3:38:485:12 11.5771ax
339.224XEY AUDIT ANTWERP 3:38:535:12 11.5772ax
340.658LEICA GEOSYSTEMS LEICA GEOSYSTEM3:38:545:12 11.5770bm
341.613HYDROMETAL TEAM HYDROMETAL3:38:555:12 11.5771bm
342.617IDA MEDIAFOUNDRY IDA MEDIAFOUNDR3:38:575:12 11.5672bm
343.883XQUANTO MANCA? 3:39:005:12 11.5673ax
344.1128XPWC CRM TECH TEAM 1 PWC TECHNOLOGY 3:39:065:12 11.56125bx
345.650XKEYRUS 2 KEYRUS3:39:135:12 11.55126bx
346.1120XAW(TC) EUROPE_4 AW EUROPE3:39:265:13 11.54127bx
347.550XDP-MIXTE 3 DEGROOF PETERCA3:39:285:13 11.54128bx
348.411XBE-LB-INSP2 BRUXELLES-ENVIR3:39:315:13 11.53129bx
349.565XON A LA GENETIQUE E. LUQUE SPRL3:39:315:13 11.53130bx
350.646XISS TEAM 4 'TAKEDA' ISS FACILITY SE3:39:335:13 11.53131bx
DNF: abandon; DSQ: disqualifié; Vitesse en km/h
24/02/2020 - 08:06 - 1003 Inputs
ChronoRace - Electronic Timing SPRL
http://www.chronorace.be

Page 7 / 21  
Adecco Brussels Ekiden
CAP Brussels, 19/10/2019, BEL
Ekiden - Resultaat
42.195km 
Categorie
PosNrNaamLeef.ClubTijdTkmGem.PlaatsNaamGemeente
351.230XNIET SNEL WEL GEZELLIG 3:39:365:13 11.5374ax
352.989XGERANIUMS 3:39:365:13 11.5375ax
353.874NOH 1 3:39:385:13 11.5319am
354.730XPHINEST PHINEST3:39:405:13 11.53132bx
355.738TEAM QUINAPTIS QUINAPTIS BVBA3:39:405:13 11.5373bm
356.318XEU TEAM GEH – WE R 1 3:39:425:13 11.5276ax
357.609XHDI - TALANX 2 HDI GLOBAL3:39:435:13 11.52133bx
358.706XOLAF 2 OLAF (EUROPEAN 3:39:495:13 11.52134bx
359.292XEU TEAM GEH - GREEEEEEEEE 3:39:495:13 11.5277ax
360.712XOMP 3 OMP3:39:595:13 11.51135bx
361.478KBC CORPORATE ANTI-LOPEN KBC3:39:595:13 11.5174bm
362.884XRCJAB 3:40:105:14 11.5078ax
363.282XEU TEAM GEH – COMP F(ORMU 3:40:115:14 11.5079ax
364.638XIREX IREX CONSULTING3:40:125:14 11.50136bx
365.395XSPEEDY BUGS BIOBEST GROUP N3:40:125:14 11.50137bx
366.396XTHE FLYING BUMBLEBEES BIOBEST GROUP N3:40:125:14 11.50138bx
367.332XEU TEAM GEH RUNNING RESEA 3:40:135:14 11.5080ax
368.789VEOLIA04 VEOLIA NV-SA3:40:255:14 11.4975bm
369.719ORTEC BELGIUM B ORTEC3:40:285:14 11.4876bm
370.420XCANDRIAM TEAM 1 CANDRIAM3:40:295:14 11.48139bx
371.876XOCEAN RUNNERS 3:40:325:14 11.4881ax
372.444XKBC - THE UNSIGNED MACROS KBC3:40:425:14 11.47140bx
373.607XUNICEF-GSK5 GSK3:40:465:14 11.47141bx
374.760XSPORT VLAANDEREN SPORT VLAANDERE3:40:495:14 11.47142bx
375.493XKBC MOVES SMART KBC3:40:505:15 11.46143bx
376.787VEOLIA02 VEOLIA NV-SA3:40:515:15 11.4677bm
377.1040XPURPLE BULLETS FEDEX EXPRESS3:41:005:15 11.46144bx
378.494XKBC MET1 KBC3:41:055:15 11.45145bx
379.927XFORINGRUNNERS 3:41:155:15 11.44146bx
380.657THE LACO BULLETS LACO3:41:175:15 11.4478bm
381.129XDALTONS & CO ZONIËN ATHLETIC3:41:185:15 11.4419cx
382.601TEAM GLUO GLUO3:41:255:15 11.4379bm
383.289EU TEAM GEH – EDF21 3:41:315:15 11.4320am
384.1026XMCP TEAM MATERIALISE3:41:315:15 11.43147bx
385.506CENTRICA BUSINESS SOLUTIO CENTRICA BUSINE3:41:355:16 11.4380bm
386.944STORM RIDERS 3:41:375:16 11.4281bm
387.1131XSOPRA STERIA HAPPY FEET SOPRA STERIA3:41:385:16 11.42148bx
388.366XAPB PLOEG 2 APB3:41:455:16 11.42149bx
389.369XAPB PLOEG 5 APB3:41:525:16 11.41150bx
390.783XVAN DEN NESTE BOEKHOUDKAN VAN DEN NESTE3:42:005:16 11.40151bx
391.1134SCEPTICAL JOGGERS UNIT 3:42:085:16 11.4021am
392.689NELSONRUNNERS - MOEILIJKE NELSON LABS NV3:42:095:16 11.4082bm
393.259SKEYES 2 SKEYES3:42:115:16 11.4083bm
394.513XFIS 03 CLEAR2PAY NV3:42:125:16 11.39152bx
395.585FEXXONMOBIL DAMES EXXONMOBIL3:42:165:17 11.391bf
396.692XNELSONRUNNERS - TAT-OK NELSON LABS NV3:42:165:17 11.39153bx
397.185XADECCO_VAN MARCKE 2 ADECCO3:42:185:17 11.39154bx
398.153XRCB FAMILLE 1 3:42:275:17 11.3882ax
399.661LOVELD 1 LOVELD3:42:295:17 11.3884bm
400.629XINEOS NOH 1 INEOS SERVICES 3:42:315:17 11.38155bx
DNF: abandon; DSQ: disqualifié; Vitesse en km/h
24/02/2020 - 08:06 - 1003 Inputs
ChronoRace - Electronic Timing SPRL
http://www.chronorace.be

Page 8 / 21  
Adecco Brussels Ekiden
CAP Brussels, 19/10/2019, BEL
Ekiden - Resultaat
42.195km 
Categorie
PosNrNaamLeef.ClubTijdTkmGem.PlaatsNaamGemeente
401.203XPLAN RUN TEAM PLAN INTERNATIO3:42:405:17 11.37156bx
402.518MAGAZIJN TECHNISCHE DIENS COLRUYT3:42:435:17 11.3785bm
403.752XNEWPHARMA 1 SMARTVALUE3:42:455:17 11.37157bx
404.126FRUN FOR RESC GIRLS RESC3:42:525:17 11.3612cf
405.474XKBC CLUSTER HALLE-ASSE 2 KBC3:42:535:17 11.36158bx
406.781XZ.ORG VOOR BEWEGING UPC KULEUVEN3:42:545:17 11.36159bx
407.653XCASUAL FRIDAY KPMG CENTRAL SE3:42:575:18 11.36160bx
408.654XGMS SOUNDS BETTER THAN PE KPMG CENTRAL SE3:42:595:18 11.35161bx
409.1051D.A.S. AREA MANAGERS DAS3:43:015:18 11.3586bm
410.674XMB TEAM 5 MERCEDES-BENZ B3:43:045:18 11.35162bx
411.610XHELON DREAMTEAM HELON ARCHITECT3:43:055:18 11.35163bx
412.713XOMP 4 OMP3:43:055:18 11.35164bx
413.934XFDS : "UN POUR TOUS, TOUS 3:43:075:18 11.35165bx
414.331XEU TEAM GEH REGIO FLYING 3:43:085:18 11.3583ax
415.102XINTERNATIONAL LONG DISTAN 3:43:135:18 11.3484ax
416.549XDP-FRONT DEGROOF PETERCA3:43:225:18 11.33166bx
417.965XTHE SURFING WAVRE 3:43:245:18 11.33167bx
418.551XDP-MIXTE1 DEGROOF PETERCA3:43:255:18 11.33168bx
419.260XSKEYES 3 SKEYES3:43:285:18 11.33169bx
420.623XBEOBANK TEAM 3 BEOBANK3:43:295:18 11.33170bx
421.786XALAIN VEOLIA NV-SA3:43:305:18 11.33171bx
422.628XINEOS OXIDE INEOS OXIDE3:43:335:18 11.33172bx
423.742XSAMSONITE SAMSONITE EUROP3:43:385:18 11.32173bx
424.351XAGORIA 1 AGORIA VZW3:43:415:19 11.32174bx
425.507CERTAM | LEXAM 1 CERTAM BEDRIJFS3:43:435:19 11.3287bm
426.1021XFINFAST MATERIALISE3:43:455:19 11.32175bx
427.1122AW(TC) EUROPE_2 AW EUROPE3:43:465:19 11.3188bm
428.466XKBC KANAALSUPPORT RUNNERS KBC3:43:505:19 11.31176bx
429.1082XCG LOGISTICS ENGINEERUN 3:43:515:19 11.3185ax
430.598XPROXIM'IP GEFCO BENELUX3:43:555:19 11.31177bx
431.428HEIDELBERGCEMENT - TEAM 4 CBR3:43:565:19 11.3189bm
432.434XPRAYON ENGIS PRAYON SA3:43:575:19 11.30178bx
433.951N°1 3:44:035:19 11.3090bm
434.416BUY WAY 2 BUY WAY PERSONA3:44:065:19 11.3091bm
435.832FFLUXYS BFF (BLESSED WITH 3:44:105:19 11.293af
436.953XTHE MORTGAGES WINNERS 3:44:125:19 11.29179bx
437.710OMP 1 OMP3:44:145:19 11.2992bm
438.270XJVB2 BANK J. VAN BRE3:44:165:19 11.29180bx
439.553DP-TAX DEGROOF PETERCA3:44:185:19 11.2993bm
440.497XKBC VILVOORDE EVEREST VO KBC3:44:195:19 11.29181bx
441.371XARAG 2 ARAG SE BRANCH 3:44:205:19 11.29182bx
442.659XCERTAM | LEXAM 3 LEXAM ADVOCATEN3:44:205:19 11.29183bx
443.699NUMECA 2 NUMECA INTERNAT3:44:235:20 11.2894bm
444.770XUCB CLUB - AIESECERS UCB PHARMA3:44:255:20 11.28184bx
445.592XFORMICA FORMICA3:44:315:20 11.28185bx
446.443XKBC - VALIDATION RUNNERS KBC3:44:425:20 11.27186bx
447.918X#NETELAND 3:44:515:20 11.26187bx
448.593XFOURCAST FOURCAST3:44:535:20 11.26188bx
449.500XKBC - ALLESVOORONZEGODMIC KBC3:44:575:20 11.26189bx
450.626DERBIBOYS IMPERBEL3:44:595:20 11.2595bm
DNF: abandon; DSQ: disqualifié; Vitesse en km/h
24/02/2020 - 08:06 - 1003 Inputs
ChronoRace - Electronic Timing SPRL
http://www.chronorace.be

Page 9 / 21  
Adecco Brussels Ekiden
CAP Brussels, 19/10/2019, BEL
Ekiden - Resultaat
42.195km 
Categorie
PosNrNaamLeef.ClubTijdTkmGem.PlaatsNaamGemeente
451.580COLRUYT GROUP DATS 24 EOLY, COLRUYT G3:45:035:20 11.2596bm
452.813THE NIGHTRUNNERS PFIZER3:45:155:21 11.2497bm
453.1003XWE THAUGHT THEY SAY RUN 3:45:175:21 11.2486ax
454.605XUNICEF-GSK 2 GSK3:45:185:21 11.24190bx
455.1015XCM VMOB CHRISTELIJKE MU3:45:215:21 11.23191bx
456.784XVAN DER VALK HOTEL BRUSSE VAN DER VALK HO3:45:295:21 11.23192bx
457.285XEU TEAM GEH – COMP_GAZELL 3:45:305:21 11.2387ax
458.848XHUNGARIAN FOOT HUSSARS 3:45:345:21 11.2288ax
459.1023XINNOVATORS YOU CAN RELAY MATERIALISE3:45:345:21 11.22193bx
460.543XDCM DE CEUSTER MEST3:45:375:21 11.22194bx
461.820XVRT TALKSHOW 'VANDAAG' VRT (VLAAMSE RA3:45:385:21 11.22195bx
462.399XINEOS OXIDE 1 19823:45:385:21 11.22196bx
463.255XTHE SERVICE POINTS SATELLIC NV3:45:395:21 11.22197bx
464.912XRISK THE RUN 3:45:415:21 11.22198bx
465.695XTRAIN WORLD NMBS3:45:425:21 11.22199bx
466.539XCULIRUNNERS 2 CULINOR NV3:45:465:22 11.21200bx
467.182XCMAST LEGACY ADECCO3:45:465:22 11.21201bx
468.669IQ POWER MERCEDES-BENZ B3:45:495:22 11.2198bm
469.457XKBC - TEAM PROSECCO KBC3:45:515:22 11.21202bx
470.453XKBC LIVE 1 KBC3:45:515:22 11.21203bx
471.896XRUNNING CLUB WEZEMBEEK-OP 3:45:545:22 11.2189ax
472.1001XTULIPS 3:45:555:22 11.2190ax
473.995XQA 3:46:035:22 11.2091ax
474.499KBC - BLOOD, SWEAT AND BE KBC GROEP3:46:045:22 11.2099bm
475.720XBOOST P&V P&V ASSURANCES 3:46:055:22 11.20204bx
476.904XING CREFS BELGIUM 3:46:075:22 11.20205bx
477.991XKOEN'S DREAM TEAM 3:46:075:22 11.2092ax
478.1020XCM INTERSOC CM3:46:205:22 11.19206bx
479.374XASAHI KASEI 2 ASAHI KASEI BIO3:46:235:22 11.18207bx
480.959XING BC AALST 3:46:235:22 11.18208bx
481.880XPWC 1 3:46:245:22 11.1893ax
482.152XRCB FLAGADA 3:46:285:23 11.1894ax
483.401A SCHETS & PARTNERS CVBA A SCHETS EN PAR3:46:285:23 11.18100bm
484.887XRISK TORNADOS 3:46:285:23 11.1895ax
485.826XENSEMBLE EN CHEMIN 6 3:46:345:23 11.1796ax
486.111XATLEMO - GAZELLES 3:46:555:23 11.1697ax
487.564XRUN FOREST RUN DPG MEDIA NV3:46:565:23 11.16209bx
488.903XCYBER GREEN 3:46:575:23 11.16210bx
489.320XEU TEAM GEH EASME 2 3:46:585:23 11.1698ax
490.516XC-MAC GAAT HARD! C-MAC ELECTROMA3:47:025:23 11.15211bx
491.1059WHIRLPOOL I WHIRLPOOL BELUX3:47:045:23 11.15101bm
492.943XBASSE SAMBRE CONSEILS 2 3:47:065:23 11.15212bx
493.322EU TEAM GEH EASME 4 3:47:075:23 11.1522am
494.885XRCJAB 2 3:47:085:23 11.1599ax
495.1029XPRONTO PROTO MATERIALISE3:47:085:23 11.15213bx
496.1019XCOM OKRA CHRISTELIJKE MU3:47:165:24 11.14214bx
497.641XISABEL RUNNERS 2 ISABEL NV3:47:205:24 11.14215bx
498.910XLAST IN FIRST OUT 3:47:235:24 11.13216bx
499.1037XG3PC2 FEDEX EXPRESS3:47:245:24 11.13217bx
500.382XATTENTIA 4 ATTENTIA NV3:47:265:24 11.13218bx
DNF: abandon; DSQ: disqualifié; Vitesse en km/h
24/02/2020 - 08:06 - 1003 Inputs
ChronoRace - Electronic Timing SPRL
http://www.chronorace.be

Page 10 / 21  
Adecco Brussels Ekiden
CAP Brussels, 19/10/2019, BEL
Ekiden - Resultaat
42.195km 
Categorie
PosNrNaamLeef.ClubTijdTkmGem.PlaatsNaamGemeente
501.380XATTENTIA 2 ATTENTIA NV3:47:315:24 11.13219bx
502.633XAPPH2 INSTITUT PROVIN3:47:315:24 11.13220bx
503.234XTHE VIKINGS 3:47:335:24 11.13100ax
504.429XHEIDELBERGCEMENT - TEAM 5 CBR3:47:405:24 11.12221bx
505.280XEU TEAM GEH – COMP BEENER 3:47:415:24 11.12101ax
506.306XEU TEAM GEH REGIO FLYING 3:47:435:24 11.12102ax
507.1113XXP 1 3:47:455:24 11.12103ax
508.1022XFINFUN MATERIALISE3:47:465:24 11.12222bx
509.346XTEAM BPOST FUSION ACTISOC - BPOST3:47:465:24 11.12223bx
510.350XFLUOHEALTH AGENTSCHAP ZORG3:47:485:24 11.11224bx
511.1133MEDIAMARKT CLUB RUNNERS 3:47:485:24 11.11102bm
512.483XKBC DOUBLE A KBC3:47:565:25 11.11225bx
513.458XKBC GROUP FINANCE AND ITS KBC3:47:585:25 11.11226bx
514.324XEU TEAM GEH EP PRES CABIN 3:48:015:25 11.10104ax
515.511XFIS 01 CLEAR2PAY NV3:48:015:25 11.10227bx
516.440XROBERT CEDEXEM SPRLU R3:48:025:25 11.10228bx
517.113X7 O'CLOCK RUNNERS 3:48:065:25 11.10105ax
518.463XKBC FINANCIAL PLANNING GE KBC3:48:105:25 11.10229bx
519.993XP&G SUPPLY CHAIN 3:48:105:25 11.10106ax
520.975XING HR TEAM 3:48:265:25 11.08230bx
521.735XPROMETHERA 2 PROMETHERA BIOS3:48:285:25 11.08231bx
522.267XJVB 5 BANK J. VAN BRE3:48:375:26 11.07232bx
523.310EU TEAM GEH – SEMESTER RU 3:48:405:26 11.0723am
524.667XEKIDEN TEAM SALES CHAMPIO MERCEDES-BENZ B3:48:455:26 11.07233bx
525.862XLES GAZELLES DES HONNELLE 3:48:475:26 11.07107ax
526.766THE BELGIAN THE BELGIAN3:48:475:26 11.07103bm
527.690XNELSONRUNNERS - PRIOR NELSON LABS NV3:48:545:26 11.06234bx
528.544XDE LIFT BXL - TEAM 1 DE LIFT BVBA3:48:575:26 11.06235bx
529.852XINTELLECTUAL FIGHTERS 1 3:48:575:26 11.06108ax
530.1070F#POLISHRUN.2 3:49:015:26 11.064af
531.326XEU TEAM GEH OCEANS SIX 3:49:065:26 11.05109ax
532.950ATH BEST TEAM 3:49:075:26 11.05104bm
533.1038XI-FLASH VISION FEDEX EXPRESS3:49:095:26 11.05236bx
534.323XEU TEAM GEH EP PRES CABIN 3:49:115:26 11.05110ax
535.1013XCM OKRA 2 CHRISTELIJKE MU3:49:145:26 11.04237bx
536.604UNICEF-GSK 1 GSK3:49:235:27 11.04105bm
537.988XESS ONE TEAM 3:49:295:27 11.03111ax
538.864XLES KIDS'AISNE 3:49:325:27 11.03112ax
539.894XRUNAFTERDIGIT 3:49:335:27 11.03113ax
540.836XFMO WRITTEN PROCEDURE 3:49:405:27 11.02114ax
541.603XGREEDY SLUGS 1 GS1 GLOBAL OFFI3:49:435:27 11.02238bx
542.1114XXP 2 3:49:445:27 11.02115ax
543.1046LES RAMPISTES TNT EXPRESS3:49:465:27 11.02106bm
544.199ADECCO_HEALTHY ADECCO3:49:525:27 11.01107bm
545.365XAPB PLOEG 1 APB3:49:575:27 11.01239bx
546.307XEU TEAM GEH REGIO FLYING 3:50:005:28 11.01116ax
547.364XAMCHAM EU 2 AMCHAM EU3:50:055:28 11.00240bx
548.750XSIOEN INVINCIBLE SIOEN INDUSTRIE3:50:055:28 11.00241bx
549.568XECOPHOS 1 ECOPHOS3:50:075:28 11.00242bx
550.594XFSMA 1 FSMA3:50:175:28 10.99243bx
DNF: abandon; DSQ: disqualifié; Vitesse en km/h
24/02/2020 - 08:06 - 1003 Inputs
ChronoRace - Electronic Timing SPRL
http://www.chronorace.be

Page 11 / 21  
Adecco Brussels Ekiden
CAP Brussels, 19/10/2019, BEL
Ekiden - Resultaat
42.195km 
Categorie
PosNrNaamLeef.ClubTijdTkmGem.PlaatsNaamGemeente
551.595XFSMA 2 FSMA3:50:235:28 10.99244bx
552.591XWIJ ZIJN FIT FLANDERS INVEST3:50:305:28 10.98245bx
553.775XUCB CLUB - RECHERCHE EN C UCB PHARMA3:50:325:28 10.98246bx
554.237NVISO'S EAGLES NVISO3:50:325:28 10.98108bm
555.774XUCB CLUB - QP DMPK UCB PHARMA3:50:355:28 10.98247bx
556.583XESSITY BELGIUM ESSITY BELGIUM3:50:395:28 10.98248bx
557.1002XTURBO SNAIL 3:50:495:29 10.97117ax
558.675XMB TEAM 6 MERCEDES-BENZ B3:50:595:29 10.96249bx
559.800XVRIJ CLB NETWERK VRIJ CLB NETWER3:51:045:29 10.96250bx
560.998XRUNNING TURTLES 3:51:055:29 10.96118ax
561.939XLES SOURIS 3:51:075:29 10.95251bx
562.642XISK BIOSCIENCES EUROPE ISK BIOSCIENCES3:51:085:29 10.95252bx
563.214XMODIS IT & ENGINEERING #1 ADECCO3:51:165:29 10.95253bx
564.837XFOYER NOTRE DAME DE PAIX 3:51:185:29 10.95119ax
565.342XEU-TEAM-FUN4RUN 3:51:205:29 10.94120ax
566.792XVESUVIUS 2 VESUVIUS GROUP 3:51:275:30 10.94254bx
567.793XVESUVIUS 3 VESUVIUS GROUP 3:51:315:30 10.94255bx
568.791XVESUVIUS 1 VESUVIUS GROUP 3:51:325:30 10.93256bx
569.956XFROM EPIC TO SPRINT 3:51:335:30 10.93257bx
570.460XKBC - BLUE PEARLS KBC3:51:365:30 10.93258bx
571.1072XABD (ASSOCIATION BELGE D 3:51:385:30 10.93121ax
572.725XPARKER PRÄDIFA, HET NOG S PARKER PRÄDIFA3:51:385:30 10.93259bx
573.683XAGILENT TECHNOLOGIES BELG MULTIPLICOM, PA3:51:445:30 10.93260bx
574.432PRAYON LES ROCHES PRAYON LES ROCH3:51:475:30 10.92109bm
575.875NOH 2 3:51:505:30 10.9224am
576.1115XXP 3 3:52:055:31 10.91122ax
577.254XTHE FAST TRACKS SATELLIC NV3:52:055:31 10.91261bx
578.339XEU TEAM GEH_KICKING ASSET 3:52:085:31 10.91123ax
579.678XMIELE POWERWASH MIELE3:52:085:31 10.91262bx
580.309XEU TEAM GEH – RUN4PASTA 3:52:105:31 10.91124ax
581.682XAGILENT TECHNOLOGIES BELG MULTIPLICOM, NO3:52:105:31 10.90263bx
582.860LES FREELANCES 3:52:135:31 10.9025am
583.856FJRC-GEEL WOMEN 3:52:165:31 10.905af
584.1071F#POLISHRUN.3 3:52:205:31 10.906af
585.1078AZZARDO 3:52:205:31 10.9026am
586.195XWIN4YOUTH ALUMNI AMBASSAD ADECCO3:52:225:31 10.90264bx
587.1073XANGELS OF EMPLOYMENT 3:52:235:31 10.90125ax
588.1126XTOUS A BORD 1 3:52:235:31 10.89126ax
589.562XDPG MEDIA ROAD RUNNERS DPG MEDIA NV3:52:245:31 10.89265bx
590.863XLES GRIZZLYS DES HAUTS-PA 3:52:245:31 10.89127ax
591.451XKBC LIVE 3 KBC3:52:275:31 10.89266bx
592.265XDPB1 BANK J. VAN BRE3:52:275:31 10.89267bx
593.1125FTOUS A BORD 2 3:52:285:31 10.897af
594.785XTEAM VBO-FEB VBO-FEB3:52:315:31 10.89268bx
595.302XEU TEAM GEH – PROSPERITEA 3:52:345:31 10.89128ax
596.487KBC THE BLUE PRIVATE BANK KBC3:52:375:31 10.88110bm
597.295XEU TEAM GEH – INEA 1 3:52:405:31 10.88129ax
598.459XKBC GROUP FINANCE AND ITS KBC3:52:415:31 10.88269bx
599.545XDE LIFT BXL - TEAM 2 DE LIFT BVBA3:52:425:31 10.88270bx
600.277XEU TEAM GEH - CLIMA RUNNE 3:52:465:31 10.88130ax
DNF: abandon; DSQ: disqualifié; Vitesse en km/h
24/02/2020 - 08:06 - 1003 Inputs
ChronoRace - Electronic Timing SPRL
http://www.chronorace.be

Page 12 / 21  
Adecco Brussels Ekiden
CAP Brussels, 19/10/2019, BEL
Ekiden - Resultaat
42.195km 
Categorie
PosNrNaamLeef.ClubTijdTkmGem.PlaatsNaamGemeente
601.928XDOUDOU 2 3:52:485:32 10.88271bx
602.291XEU TEAM GEH – EMPL BREAKI 3:52:495:32 10.87131ax
603.797XPAPERUNNERS VPK PAPER3:52:535:32 10.87272bx
604.470XKBC - EKIDEN > MAARTEN'S KBC3:52:535:32 10.87273bx
605.355XAIG GBN AIG GBN3:53:015:32 10.86274bx
606.529XCORILUS CORILUS3:53:025:32 10.86275bx
607.476XKBC CLUSTER HALLE-ASSE 3 KBC3:53:075:32 10.86276bx
608.228XEYTOURNAI1 3:53:135:32 10.86132ax
609.827XENSEMBLE EN CHEMIN 7 3:53:155:32 10.85133ax
610.229XEYTOURNAI2 3:53:165:32 10.85134ax
611.510XCEVORA #BEONE CEVORA VZW3:53:185:32 10.85277bx
612.521XCOLRUYT GROUP SERVICE CEN 3:53:185:32 10.85135ax
613.777XUCB CLUB - THE IMPALAS UCB PHARMA3:53:195:32 10.85278bx
614.600XUNICEF-GSK 3 GLAXOSMITHKLINE3:53:195:32 10.85279bx
615.824XENSEMBLE EN CHEMIN 4 3:53:195:32 10.85136ax
616.269XJVB 3 BANK J. VAN BRE3:53:205:32 10.85280bx
617.917XJETT'AVENGERS 3:53:215:32 10.85281bx
618.984LES FOIES DE VEAUX 3:53:225:32 10.85111bm
619.418XCANDRIAM - TEAM 2 CANDRIAM3:53:245:32 10.85282bx
620.561XDE JOERICORNS DPG MEDIA NV3:53:285:32 10.84283bx
621.315XEU TEAM GEH – THE AWESOME 3:53:295:32 10.84137ax
622.819XVRT TECHNOLOPERS VRT3:53:295:32 10.84284bx
623.942XBASSE SAMBRE CONSEILS 1 3:53:385:33 10.84285bx
624.225XEY FINANCE TEAM 3:53:395:33 10.84138ax
625.193XSANORICE - RUN4FUN SANORICE BELGIU3:53:425:33 10.83286bx
626.830XEVERRUNNERS 3:53:575:33 10.82139ax
627.869XMINOR-NDAKO CBAW BRUSSEL 3:53:575:33 10.82140ax
628.1075FA-TEAM 3:53:585:33 10.828af
629.1088XE = MARE D3 3:54:015:33 10.82141ax
630.210XADECCO-TEAM 3M-4 ADECCO-3M3:54:015:33 10.82287bx
631.1107XUNCATHCABLE 3:54:035:33 10.82142ax
632.450XKBC LIVE 4 KBC3:54:055:33 10.82288bx
633.273XEU TEAM GEH – #BEACTIVE 3:54:055:33 10.82143ax
634.400XA SCHETS & PARTNERS CVBA A SCHETS & PART3:54:065:33 10.81289bx
635.330XEU TEAM GEH REGIO FLYING 3:54:115:33 10.81144ax
636.492XKBC - TEAM YES WE RUN ! KBC3:54:125:34 10.81290bx
637.196XADECCO_FAST AND CURIOUS ADECCO3:54:155:34 10.81291bx
638.509XCEVORA #BECURIOUS CEVORA VZW3:54:165:34 10.81292bx
639.634XAPPH3 INSTITUT PROVIN3:54:165:34 10.81293bx
640.1063XZETES3 ZETES3:54:185:34 10.81294bx
641.574XET GTI ELECTRO-TEST VZ3:54:265:34 10.80295bx
642.619XIMPACT 2 IMPACT3:54:325:34 10.80296bx
643.336XEU TEAM GEH_BORN2RUN 3:54:365:34 10.79145ax
644.337XEU TEAM GEH_DUNNING FOR E 3:54:485:34 10.78146ax
645.393XBEPHARBEL BEPHARBEL3:54:505:34 10.78297bx
646.780XRUNISYS 3 UNISYS BELGIUM3:54:535:34 10.78298bx
647.239XSTO DRYONIC STO NV3:54:585:35 10.77299bx
648.729XPHARMA.BE PHARMA.BE3:55:035:35 10.77300bx
649.347XTHE DREAM TEAM ACTISOC - BPOST3:55:055:35 10.77301bx
650.649XKEYRUS 1 KEYRUS3:55:055:35 10.77302bx
DNF: abandon; DSQ: disqualifié; Vitesse en km/h
24/02/2020 - 08:06 - 1003 Inputs
ChronoRace - Electronic Timing SPRL
http://www.chronorace.be

Page 13 / 21  
Adecco Brussels Ekiden
CAP Brussels, 19/10/2019, BEL
Ekiden - Resultaat
42.195km 
Categorie
PosNrNaamLeef.ClubTijdTkmGem.PlaatsNaamGemeente
651.662XLOVELD 2 LOVELD3:55:095:35 10.77303bx
652.584XCOLRUYT GROUP S2RUNNERS ETABLISSEMENTS 3:55:165:35 10.76304bx
653.335XEU TEAM GEH_BANANA4HANA 3:55:165:35 10.76147ax
654.1018XCM ZUID-WEST VLAANDEREN CHRISTELIJKE MU3:55:295:35 10.75305bx
655.723XTEAM HR P&V ASSURANCES 3:55:295:35 10.75306bx
656.1065XZOETIS 2 ZOETIS3:55:415:36 10.74307bx
657.1064XZOETIS 1 ZOETIS3:55:455:36 10.74308bx
658.373ASAHI KASEI 1 ASAHI KASEI BIO3:55:455:36 10.74112bm
659.361XALLNEX 2 ALLNEX3:55:495:36 10.74309bx
660.1008XCM KAZOU CHRISTELIJKE MU3:55:505:36 10.74310bx
661.906X[RBU] RAINBOW RUNNERS 3:55:555:36 10.73311bx
662.190FAREA VLAANDEREN WEST ADECCO3:56:015:36 10.732bf
663.327XEU TEAM GEH REGIO FLYING 3:56:075:36 10.72148ax
664.1086XDE WOLLIGE WINTERBEERTJES 3:56:235:37 10.71149ax
665.631XMEDNUC BORDET INSTITUT JULES 3:56:265:37 10.71312bx
666.377XASTELLAS ASTELLAS PHARMA3:56:285:37 10.71313bx
667.1102XTHE FLYING COMMUN-ERC-ATO 3:56:295:37 10.71150ax
668.358XRUN ON AIR AIR PRODUCTS3:56:375:37 10.70314bx
669.408XBRUSSELS AIRLINES FINANCE BRUSSELS AIRLIN3:56:445:37 10.69315bx
670.519XCOLRUYT GROUP FINE FOOD T 3:56:475:37 10.69151ax
671.1085XDE RODE LOPERS 3:56:495:37 10.69152ax
672.403XBOIRON 2 BOIRON SPRL3:56:525:37 10.69316bx
673.531XCREDENDO HR CREDENDO3:56:535:37 10.69317bx
674.1028XNUTS & BOLTS MATERIALISE3:56:545:37 10.69318bx
675.296XEU TEAM GEH – INEA 2 3:57:055:38 10.68153ax
676.1080XBOIÇA 3:57:065:38 10.68154ax
677.221XA-TEAM 1 3:57:065:38 10.68155ax
678.1079XBC-TEAM 3:57:085:38 10.68156ax
679.200XFINANCE & FACILITY ADECCO PERSONNE3:57:095:38 10.68319bx
680.1011XCM MCHO 1 CHRISTELIJKE MU3:57:095:38 10.68320bx
681.398XTHE CPL ORPHANS BNP PARIBAS FOR3:57:125:38 10.67321bx
682.1025XMATERUNALAISE MATERIALISE3:57:175:38 10.67322bx
683.1135XAUTOMATION NV 3:57:175:38 10.67323bx
684.612XHUIS VAN HET NEDERLANDS B HUIS VAN HET NE3:57:185:38 10.67324bx
685.482XKBC HIGH INSPECTATIONS KBC3:57:185:38 10.67325bx
686.407XBRIDGESTONE HYBRID IT BRIDGESTONE EME3:57:195:38 10.67326bx
687.1047XMEGAMIX TNT EXPRESS WOR3:57:205:38 10.67327bx
688.183XADECCO_THE JUHRESOURCES ADECCO3:57:245:38 10.66328bx
689.794XENERGY 4 RUN VLAAMS ENERGIEA3:57:255:38 10.66329bx
690.439PRAYON TV PRAYON SA3:57:265:38 10.66113bm
691.448XKBC - THE WOLFPACK KBC3:57:285:38 10.66330bx
692.994XPAS DE MARATHON SANS DONS 3:57:425:38 10.65157ax
693.606XUNICEF-GSK4 GSK3:57:465:39 10.65331bx
694.122XRCB GRUPPETTO 3:57:465:39 10.65158ax
695.1050XD.A.S. ANTWERPEN DAS3:57:485:39 10.65332bx
696.272XEU TEAM CEH - COMP - THE 3:57:485:39 10.65159ax
697.406XBRIDGESTONE DIGITAL WORKP BRIDGESTONE EME3:57:505:39 10.65333bx
698.449XKBC - CZECH MATES KBC3:57:525:39 10.64334bx
699.370XARAG 1 ARAG SE BRANCH 3:58:105:39 10.63335bx
700.916XING BLS GENT RUN4FUN 3:58:145:39 10.63336bx
DNF: abandon; DSQ: disqualifié; Vitesse en km/h
24/02/2020 - 08:06 - 1003 Inputs
ChronoRace - Electronic Timing SPRL
http://www.chronorace.be

Page 14 / 21  
Adecco Brussels Ekiden
CAP Brussels, 19/10/2019, BEL
Ekiden - Resultaat
42.195km 
Categorie
PosNrNaamLeef.ClubTijdTkmGem.PlaatsNaamGemeente
701.472XKBC BRUSSELS THE BEASTS KBC3:58:235:39 10.62337bx
702.1150XFIPRA FIPRA3:58:265:40 10.62338bx
703.218XTHE EXPERTS ADECCO3:58:275:40 10.62339bx
704.635XCRISIS GROUP RUNS INTERNATIONAL C3:58:275:40 10.62340bx
705.293XEU TEAM GEH – HR AMC CHAM 3:58:325:40 10.61160ax
706.268XJVB 4 BANK J. VAN BRE3:58:345:40 10.61341bx
707.552XDP-MTEAM DEGROOF PETERCA3:58:355:40 10.61342bx
708.905[RBU] UNICORNS UNITED 3:58:385:40 10.61114bm
709.555XSPLASH! DEPARTEMENT OMG3:58:425:40 10.61343bx
710.145XLOS RAPIDOS 3:58:425:40 10.61161ax
711.514XKLINIEK SINT-JAN CLINIQUE SAINT-3:58:515:40 10.60344bx
712.389X-TREEM BAM CONTRACTORS3:58:545:40 10.60115bm
713.305FEU TEAM GEH REGIO FLYING 3:58:565:40 10.609af
714.1090XELANDEN 3:58:585:40 10.59162ax
715.1062XZETES2 ZETES3:59:045:40 10.59345bx
716.1031XSLOW ROLL MATERIALISE3:59:065:40 10.59346bx
717.467XKBC - CRISPERS KBC3:59:115:41 10.59347bx
718.985XBRUSSELS EKIDEN 3:59:165:41 10.58163ax
719.828XENSEMBLE EN CHEMIN 8 3:59:195:41 10.58164ax
720.504XCENTRAN 2 CENTRAN3:59:205:41 10.58348bx
721.582XERGO ERGO INSURANCE3:59:245:41 10.58349bx
722.671MB TEAM 2 MERCEDES-BENZ B3:59:265:41 10.57116bm
723.1034XTEAM 3 MATERIALISE3:59:325:41 10.57350bx
724.1048XORHANGE RUNS PURPLE TNT EXPRESS WOR3:59:355:41 10.57351bx
725.211XADECCO - TEAM 3M-3 ADECCO3:59:475:41 10.56352bx
726.788XVEOLIA03 VEOLIA NV-SA3:59:525:42 10.55353bx
727.281XEU TEAM GEH – COMP C5 NIN 3:59:535:42 10.55165ax
728.363XAMCHAM EU AMCHAM EU3:59:575:42 10.55354bx
729.176XA.B.RUN 4:00:025:42 10.55166ax
730.413XBSH TEAM 2 BSH HOME APPLIA4:00:025:42 10.55355bx
731.298XEU TEAM GEH – I-RUNNERS 2 4:00:025:42 10.55167ax
732.360XALLNEX 1 ALLNEX4:00:035:42 10.55356bx
733.1106XTUI BELGIUM 2 4:00:065:42 10.54168ax
734.329XEU TEAM GEH REGIO FLYING 4:00:125:42 10.54169ax
735.999XSHAKE-A-LEG 4:00:265:42 10.53170ax
736.547XDP - MIXTE2 DEGROOF PETERCA4:00:295:42 10.53357bx
737.825XENSEMBLE EN CHEMIN 5 4:00:395:43 10.52171ax
738.621XIMPACT 4 IMPACT4:00:445:43 10.52358bx
739.937XTEAM BC AM + EEN ANALIST 4:00:475:43 10.51359bx
740.446XKBC - SCREENDOGS KBC4:00:505:43 10.51360bx
741.445XKBC - SCREENCATS KBC4:00:515:43 10.51361bx
742.278XEU TEAM GEH – COMP – THE 4:00:575:43 10.51172ax
743.275XEU TEAM GEH – BELOW ZERO 4:01:005:43 10.51173ax
744.834XFLYING HIGH 4:01:055:43 10.50174ax
745.987XENGINEERING TEAM 4:01:175:44 10.49175ax
746.891XRUN4FUN DREAMTEAM 4:01:205:44 10.49176ax
747.477XKBC CORPORATE LAS HERMANA KBC4:01:275:44 10.49362bx
748.705XOLAF 1 OLAF (EUROPEAN 4:01:275:44 10.49363bx
749.746XSIEMENS MOMIX SIEMENS4:01:285:44 10.48364bx
750.1109XVLAMMERTJES 2 4:01:395:44 10.48177ax
DNF: abandon; DSQ: disqualifié; Vitesse en km/h
24/02/2020 - 08:06 - 1003 Inputs
ChronoRace - Electronic Timing SPRL
http://www.chronorace.be

Page 15 / 21  
Adecco Brussels Ekiden
CAP Brussels, 19/10/2019, BEL
Ekiden - Resultaat
42.195km 
Categorie
PosNrNaamLeef.ClubTijdTkmGem.PlaatsNaamGemeente
751.1108XVLAMMERTJES 4:01:395:44 10.48178ax
752.512XFIS 02 CLEAR2PAY NV4:01:405:44 10.48365bx
753.811XPLAINEFORM PFIZER NV/SA4:01:445:44 10.47366bx
754.333XEU TEAM GEH- SPANISH TEAM 4:01:485:44 10.47179ax
755.778XRUNISYS 1 UNISYS BELGIUM4:01:515:44 10.47367bx
756.263XDPB3 BANK J. VAN BRE4:02:065:45 10.46368bx
757.899XRUNNING PALS OF MARCO - 3 4:02:225:45 10.45180ax
758.980XTHE INVICIBLE LIONS 4:02:235:45 10.45369bx
759.468XKBC CLUSTER AALST GAAT SA KBC4:02:455:46 10.43370bx
760.469XKBC CLUSTER AALST GAAT SA KBC4:02:475:46 10.43371bx
761.108XMOLTEAM THE ADECCO GROU4:02:495:46 10.43372bx
762.893XRUN4FUN TRIPELTEAM 4:02:545:46 10.42181ax
763.932XRUN, FORREST, RUN (ING) 4:03:005:46 10.42373bx
764.655XTHE RUNNING NUMBERS KPMG CENTRAL SE4:03:125:46 10.41374bx
765.726XPARKER PRÄDIFA, HET SNELL PARKER PRÄDIFA4:03:135:46 10.41375bx
766.722XRISK & RUNNING TEAM P&V ASSURANCES 4:03:135:46 10.41376bx
767.334XEU TEAM GEH THE GREEN BUT 4:03:155:46 10.41182ax
768.184XADECCO_VAN MARCKE 3 ADECCO4:03:155:46 10.41377bx
769.901XCYBER RED 4:03:165:46 10.41378bx
770.651XKEYSTONE SOLUTIONS KEYSTONE SOLUTI4:03:165:46 10.41379bx
771.454XKBC - PEINUTS 1919 KBC4:03:255:47 10.40380bx
772.391XBELGAIMAGE BELGA NEWS AGEN4:03:335:47 10.40381bx
773.620XIMPACT 3 IMPACT4:03:335:47 10.40382bx
774.709XOLAF 5 OLAF (EUROPEAN 4:03:455:47 10.39383bx
775.515XCLINIQUE SAINT-JEAN CLINIQUE SAINT-4:03:525:47 10.38384bx
776.352XAGORIA 2 AGORIA VZW4:03:535:47 10.38385bx
777.624FBEOBANK TEAM 1 BEOBANK4:03:545:47 10.383bf
778.749SIEMENS SI TOTALLY INTEGR SIEMENS4:03:575:47 10.38117bm
779.256XTHE JAMMERS SATELLIC NV4:03:575:47 10.38386bx
780.414XBSH TEAM 3 BSH HOME APPLIA4:04:045:48 10.37387bx
781.572HERMES ECS SA TEAM FUN ECS HERMÈS SA4:04:075:48 10.37118bm
782.274XEU TEAM GEH - BÉBÉS HR 4:04:075:48 10.37183ax
783.243XSTO LTD TEAM 2 STO LTD4:04:085:48 10.37388bx
784.679XMIZIGO AFRICA CARGO MIZIGO AFRICA C4:04:095:48 10.37389bx
785.536XCSL BEHRING TEAM 1 CSL BEHRING NV4:04:095:48 10.37390bx
786.233XSPORTIFEY 4:04:125:48 10.37184ax
787.433XCATHERINE LECOQ PRAYON SA4:04:135:48 10.37391bx
788.782XVAN DEN NESTE BOEKHOUDKAN VAN DEN NESTE4:04:175:48 10.36392bx
789.851XINTELLECTUAL FIGHTERS 2 4:04:265:48 10.36185ax
790.808XPFIZER ONCO TEAM PFIZER4:04:285:48 10.36393bx
791.1000XSURICATS 4:04:295:48 10.36186ax
792.1119XAW(TC) EUROPE_5 AW EUROPE4:04:305:48 10.35394bx
793.622XBEOBANK TEAM 2 BEOBANK4:04:325:48 10.35395bx
794.753XNEWPHARMA 2 SMARTVALUE SCRL4:04:335:48 10.35396bx
795.313FEU TEAM GEH – SLOVAK RUNN 4:04:345:48 10.3510af
796.992XNORTH SEA CONTROL TOWER 4:04:345:48 10.35187ax
797.341XEU TEAM GH - COMP MADOU M 4:04:455:49 10.34188ax
798.734XPROMETHERA 1 PROMETHERA BIOS4:04:475:49 10.34397bx
799.589XLES CROUSTILLANTS FIDUCRE4:04:495:49 10.34398bx
800.232XPAS DIEGEM 4:04:495:49 10.34189ax
DNF: abandon; DSQ: disqualifié; Vitesse en km/h
24/02/2020 - 08:06 - 1003 Inputs
ChronoRace - Electronic Timing SPRL
http://www.chronorace.be

Page 16 / 21  
Adecco Brussels Ekiden
CAP Brussels, 19/10/2019, BEL
Ekiden - Resultaat
42.195km 
Categorie
PosNrNaamLeef.ClubTijdTkmGem.PlaatsNaamGemeente
801.947XBCC2 - THE FLASH RUNNERS 4:04:575:49 10.34399bx
802.972XBM FIT 4:04:595:49 10.33400bx
803.1042XTHE AVENGERS FEDEX EXPRESS4:04:595:49 10.33401bx
804.804XLQC3 IS RIBBEDEBIE PFIZER4:05:065:49 10.33402bx
805.741XDE SIXPACK VAN PAUL RSA LUXEMBOURG 4:05:095:49 10.33403bx
806.546XMA²GIC DE RYCKE DE RYCKE GEBROE4:05:115:49 10.33404bx
807.244XSTO NL RUNNERS 4:05:235:49 10.32190ax
808.525COLRUYT GROUP PIONEERS COLRUYT GROUP S4:05:285:50 10.31119bm
809.952XANALYSE TO THE RACE-QUE 4:05:295:50 10.31405bx
810.206XADECCO_TEAM ROYCO ADECCO4:05:455:50 10.30406bx
811.205XADECCO_TEAM DE VOS&LEMMEN ADECCO4:05:455:50 10.30407bx
812.1076XATLAS COPCO INDUSTRIAL VA 4:05:485:50 10.30191ax
813.354XAIG MIX AIG EUROPE4:05:575:50 10.29408bx
814.343BX-BORDER ACTISOC - BPOST4:06:205:51 10.28120bm
815.412XBSH TEAM 1 BSH HOME APPLIA4:06:265:51 10.27409bx
816.106XNTT BELGIUM TEAM 3 NTT BELGIUM4:06:285:51 10.27410bx
817.938XLA SQUAD VDH - ING RÉGION 4:06:355:51 10.27411bx
818.680XMOBCO-BIS MOBCO BVBA4:06:405:51 10.26412bx
819.1097XSNAIL RUNNING TEAM (DEPAR 4:06:475:51 10.26192ax
820.537FCSL BEHRING TEAM 2 CSL BEHRING NV4:06:505:51 10.264bf
821.743XSIEMENS EIDC SIEMENS4:06:535:52 10.25413bx
822.911XHR AIRMILE 4:06:595:52 10.25414bx
823.1127XPWC CRM TECH TEAM 2 PWC TECHNOLOGY 4:07:035:52 10.25415bx
824.383XATTENTIA 5 ATTENTIA NV4:07:155:52 10.24416bx
825.321XEU TEAM GEH EASME 3 4:07:255:52 10.23193ax
826.630XINEOS NOH 2 INEOS SERVICES 4:07:275:52 10.23417bx
827.914XING DAILY BANKING BE 4:07:365:53 10.23418bx
828.997XRUNNING CLEANERS 4:07:375:53 10.22194ax
829.452XKBC LIVE 2 KBC4:07:455:53 10.22419bx
830.596XFSMA 3 FSMA4:07:465:53 10.22420bx
831.490XKBC KANAALSUPPORT RUNNERS KBC4:07:495:53 10.22421bx
832.208XADECCO_MODIS TEAM MENDEL ADECCO4:07:545:53 10.21422bx
833.297EU TEAM GEH – I-RUNNERS 1 4:07:545:53 10.2127am
834.599X-MEN KILLERS GEFCO BENELUX4:07:565:53 10.21121bm
835.1004XCM AO-IT CHRISTELIJKE MU4:07:585:53 10.21423bx
836.312XEU TEAM GEH – SJ BLUE BRE 4:08:145:53 10.20195ax
837.464XKBC RUN FORREST RUN KBC4:08:165:54 10.20424bx
838.192XSANORICE - DE TARTINETJES SANORICE BELGIU4:08:165:54 10.20425bx
839.484XKBC SINGLE A KBC4:08:175:54 10.20426bx
840.817FVRT - HR+ VRT4:08:285:54 10.195bf
841.707XOLAF 3 OLAF (EUROPEAN 4:08:295:54 10.19427bx
842.855XJRC-GEEL LEISURE 4:08:355:54 10.18196ax
843.963KE'S ZONE WEST & CO 4:09:035:55 10.17122bm
844.924XCRM TRAILBLAZERS 4:09:185:55 10.16428bx
845.198ADECCO_ONESTPASSAUVÉ ADECCO4:09:295:55 10.15123bm
846.806XPCRU 2 PFIZER4:09:345:55 10.14429bx
847.983XLA VALSE LENTE 4:09:355:55 10.14430bx
848.431XSAT DREAM TEAM PRAYON4:09:395:55 10.14431bx
849.1104XTHE SUPREMES 4:09:535:56 10.13197ax
850.696XN-SIDE 1 N-SIDE S.A.4:10:005:56 10.13432bx
DNF: abandon; DSQ: disqualifié; Vitesse en km/h
24/02/2020 - 08:06 - 1003 Inputs
ChronoRace - Electronic Timing SPRL
http://www.chronorace.be

Page 17 / 21  
Adecco Brussels Ekiden
CAP Brussels, 19/10/2019, BEL
Ekiden - Resultaat
42.195km 
Categorie
PosNrNaamLeef.ClubTijdTkmGem.PlaatsNaamGemeente
851.328XEU TEAM GEH REGIO FLYING 4:10:015:56 10.13198ax
852.276XEU TEAM GEH - BRAVE ENFOR 4:10:095:56 10.12199ax
853.197XSANORICE - START 2 RUN SANORICE BELGIU4:10:135:56 10.12433bx
854.644XISS TEAM 2 ISS FACILITY SE4:10:165:56 10.12434bx
855.1087XDREAM TEAM 4:10:185:56 10.12200ax
856.966XATH ATTACK 4:10:305:57 10.11435bx
857.693XNEXUS COMMUNICATION NEXUS COMMUNICA4:10:425:57 10.10436bx
858.829XERC4EKIDEN 4:10:595:57 10.09201ax
859.1053XD.A.S. GENT DAS4:11:055:58 10.08437bx
860.812XRO2 PFIZER4:11:055:58 10.08438bx
861.498FKBC - THE MIXED LADIES KBC4:11:065:58 10.086bf
862.954WESTSIDE 4:11:255:58 10.07124bm
863.915FTEAM LIONESS 4:11:295:58 10.077bf
864.795VOLVO CAR BELUX 1 VOLVO CAR BELUX4:11:345:58 10.06125bm
865.898XRUNNING PALS OF MARCO - 2 4:11:395:58 10.06202ax
866.1061XZETES1 ZETES4:11:435:58 10.06439bx
867.353XAIG AIG EUROPE4:11:505:59 10.05440bx
868.888XROTARY BRUSSELS CANTERSTE 4:11:555:59 10.05203ax
869.961XDOUDOU3 4:12:025:59 10.05441bx
870.976XNORD DES FAGNES 4:12:045:59 10.04442bx
871.213XMODIS IT & ENGINEERING #2 ADECCO4:12:075:59 10.04443bx
872.979XCONDROZ RUN 4:12:135:59 10.04444bx
873.1067XTYSON GAY TEAM 9.69 ZORGBEDRIJF ANT4:12:165:59 10.04445bx
874.1005XCM COMPAS CHRISTELIJKE MU4:12:296:00 10.03446bx
875.479XKBC INSURANCE RUNNING TEA KBC4:12:406:00 10.02447bx
876.1055XD.A.S. NIVELLES 1 DAS4:12:506:00 10.01448bx
877.376XASAHI KASEI 4 ASAHI PHOTOPROD4:12:546:00 10.01449bx
878.252XTHE BEST ONES 4:12:576:00 10.01204ax
879.422XCAPGEMINI 2 CAPGEMINI BELGI4:13:006:00 10.01450bx
880.672XMB TEAM 3 MERCEDES-BENZ B4:13:056:00 10.00451bx
881.1066XLIGHTNING BOLT TEAM 9.58 ZORGBEDRIJF ANT4:13:216:01 9.99452bx
882.666XMEDTRONIC BELGIUM MEDTRONIC BELGI4:13:366:01 9.98453bx
883.974XFAST AND FURIOUS 4:13:386:01 9.98454bx
884.455XKBC TREASURY SOUND KBC4:13:406:01 9.98455bx
885.421XCAPGEMINI 1 CAPGEMINI BELGI4:13:436:01 9.98456bx
886.523XCOLRUYT GROUP TECHNICS 4:13:476:01 9.98205ax
887.986XBRUSSELS EKIDEN RELAY MAR 4:13:506:01 9.97206ax
888.889XROTARY BRUSSELS CANTERSTE 4:13:596:02 9.97207ax
889.1030XRUNNING LATE MATERIALISE4:14:056:02 9.96457bx
890.962XTHE WAV'RUN'ING 4:14:066:02 9.96458bx
891.253XPRIMA TEAM 4:14:176:02 9.96208ax
892.684XMUSÉE DE MARIEMONT MUSÉE ROYAL DE 4:14:186:02 9.96459bx
893.776XUCB CLUB - TEAM R8 UCB PHARMA4:14:246:02 9.95460bx
894.286XEU TEAM GEH – COMPLICES C 4:14:506:03 9.94209ax
895.319XEU TEAM GEH EASME 1 4:14:596:03 9.93210ax
896.858XJUSTITIEHUIS BRUSSEL 4:15:056:03 9.93211ax
897.597XGEFCOOPERATION GEFCO BENELUX4:15:066:03 9.92461bx
898.670XMB TEAM 1 MERCEDES-BENZ B4:15:126:03 9.92462bx
899.895RUNNING CITY 2/ NGBA 4:15:146:03 9.9228am
900.1056XD.A.S. VLAAMS-BRABANT DAS4:15:176:04 9.92463bx
DNF: abandon; DSQ: disqualifié; Vitesse en km/h
24/02/2020 - 08:06 - 1003 Inputs
ChronoRace - Electronic Timing SPRL
http://www.chronorace.be

Page 18 / 21  
Adecco Brussels Ekiden
CAP Brussels, 19/10/2019, BEL
Ekiden - Resultaat
42.195km 
Categorie
PosNrNaamLeef.ClubTijdTkmGem.PlaatsNaamGemeente
901.1099XTEAM FOFO 4:15:456:04 9.90212ax
902.816XVUB MENS & ORGANISATIE VRIJE UNIVERSIT4:15:476:04 9.90464bx
903.1049XD.A.S. NIVELLES 2 DAS4:16:086:05 9.88465bx
904.632XAPPH1 INSTITUT PROVIN4:16:506:06 9.86466bx
905.262XDPB4 BANK J. VAN BRE4:16:506:06 9.86467bx
906.517XWEBER SHANDWICK BRUSSELS CMGRP BELGIUM S4:17:006:06 9.85468bx
907.202XADECCO PLAN TEAM GENT ADECCO4:17:056:06 9.85469bx
908.602XGLOBAL SNAILS WON GS1 GLOBAL OFFI4:17:056:06 9.85470bx
909.936XDOUDOU 1 4:17:106:06 9.84471bx
910.257XTHE WOODEN HAMMERS SATELLIC NV4:17:206:06 9.84472bx
911.810XPFIZERS BLUE DEVILS PFIZER4:17:416:07 9.83473bx
912.973XTHE JOGEM'S 4:17:496:07 9.82474bx
913.656XLACO F.A.S.T. LACO4:17:496:07 9.82475bx
914.1058XDE WDW'KES WDW PRODUCTIONS4:18:006:07 9.81476bx
915.754XNEWPHARMA 3 SMARTVALUE SCRL4:18:016:07 9.81477bx
916.1081XCARROS DE FOGUEO V 4:18:276:08 9.80213ax
917.923XSTUNNINGSTUNTINGRUNNING-T 4:18:306:08 9.79478bx
918.618XIMPACT 1 IMPACT4:18:346:08 9.79479bx
919.563XNEON DPG MEDIA NV4:18:366:08 9.79480bx
920.236XVAT/CUSTOMS 2 4:18:576:09 9.78214ax
921.231XPARTNER TEAM 4:19:016:09 9.77215ax
922.496XKBC TEAM ALLEZ ALAIN KBC4:19:076:09 9.77481bx
923.921XING CARTA MUNDI 4:19:156:09 9.77482bx
924.1116ZAKIHAMA A 4:19:226:09 9.7629am
925.1045XLES COUREURS TNT4:19:236:09 9.76483bx
926.913XING DAILY BANKING ALWAYS 4:19:376:10 9.75484bx
927.402XBOIRON 1 BOIRON SPRL4:19:596:10 9.74485bx
928.1006XCM HR CHRISTELIJKE MU4:20:136:11 9.73486bx
929.540XHARTCENTRUM O.L.V. AALST CVBA CARDIAC RE4:20:266:11 9.72487bx
930.1009CM LAMA CHRISTELIJKE MU4:20:276:11 9.72126bm
931.933XMELTINGPOTES 4:20:336:11 9.72488bx
932.886FREGIO FLYING TEAM 4 4:20:446:11 9.7111af
933.425XHEIDELBERGCEMENT - TEAM 1 CBR4:20:536:11 9.70489bx
934.969XLA BOTTE QUI COURT 1 4:20:586:12 9.70490bx
935.779XRUNISYS 2 UNISYS BELGIUM4:21:086:12 9.70491bx
936.990FHAKUNA MATATA (FAU) 4:21:376:12 9.6812af
937.611XHUIS VAN HET NEDERLANDS 2 HUIS VAN HET NE4:21:476:13 9.67492bx
938.978XTHE CHAMPIONS 4:21:496:13 9.67493bx
939.929XBACKGROUND RUNNERS 4:21:496:13 9.67494bx
940.271XJVB 1 BANK J. VAN BRE4:22:236:14 9.65495bx
941.1012XCM MCHO 2 CHRISTELIJKE MU4:23:236:15 9.61496bx
942.219XLES BOULETS LIÈGEOIS ADECCO PERSONNE4:23:566:16 9.59497bx
943.758XSPMT ARISTA TEAM 1 SPMT ARISTA4:24:116:16 9.58498bx
944.489XKBC - LBI LEGS KBC4:24:336:17 9.57499bx
945.922XKEDISS MA BICHE 4:24:476:17 9.56500bx
946.415XBUY WAY 1 BUY WAY PERSONA4:24:506:17 9.56501bx
947.390XRUNNING FOR A BETTER LIFE BAYER4:25:006:17 9.55502bx
948.732XPOLITICO POLITICO4:25:076:17 9.55503bx
949.964XGOOD BANKERS 4:25:166:18 9.54504bx
950.570XECOPHOS 3 ECOPHOS4:25:176:18 9.54505bx
DNF: abandon; DSQ: disqualifié; Vitesse en km/h
24/02/2020 - 08:06 - 1003 Inputs
ChronoRace - Electronic Timing SPRL
http://www.chronorace.be

Page 19 / 21  
Adecco Brussels Ekiden
CAP Brussels, 19/10/2019, BEL
Ekiden - Resultaat
42.195km 
Categorie
PosNrNaamLeef.ClubTijdTkmGem.PlaatsNaamGemeente
951.931XING BCH GOLDEN TEAM 4:25:266:18 9.54506bx
952.217XPSCENTER ROESELARE ADECCO4:25:436:18 9.53507bx
953.681XMOBCO-TEAM MOBCO BVBA4:26:136:19 9.51508bx
954.375XASAHI KASEI 3 ASAHI PHOTOPROD4:26:216:19 9.51509bx
955.805XNOT FAST, BUT KINDA FURIO PFIZER SA4:26:436:20 9.49510bx
956.189FADECCO_NIKÉ POWER TEAM ADECCO4:26:556:20 9.498bf
957.897XRUNNING PALS OF MARCO - 1 4:26:596:20 9.48216ax
958.949XTEAM BCC 4 4:27:046:20 9.48511bx
959.188XGLS RUNNING TEAM GLS BELGIUM DIS4:27:376:21 9.46512bx
960.1118ZAKIHAMA C 4:28:076:22 9.4430am
961.495XKBC - THE A-TEAM KBC4:28:206:22 9.44513bx
962.909XING RUN FOR FUN 4:28:596:23 9.41514bx
963.1098XSUICIDE SQUAD 4:29:076:23 9.41217ax
964.756XSPACEWELL SPACEWELL4:29:106:23 9.41515bx
965.920XLES MAMALAGEDAST 4:29:296:24 9.39516bx
966.579FTEAM ENGIE AXIMA 3 ENGIE AXIMA4:30:046:25 9.379bf
967.1044XCORPORATE SECURITY TNT/FE FEDEX/TNT EXPRE4:30:096:25 9.37517bx
968.759XSPMT ARISTA TEAM 2 SPMT ARISTA4:30:336:25 9.36518bx
969.890XRUN FOR FUN 4:30:416:25 9.35218ax
970.673XMB TEAM 4 MERCEDES-BENZ B4:30:446:25 9.35519bx
971.573XET 2CV ELECTRO-TEST4:31:466:27 9.32520bx
972.822XENSEMBLE EN CHEMIN 2 4:31:476:27 9.32219ax
973.821XENSEMBLE EN CHEMIN 1 4:31:476:27 9.32220ax
974.823XENSEMBLE EN CHEMIN 3 4:31:476:27 9.32221ax
975.223XEVERYTHING IS AWESOME 4:32:056:27 9.31222ax
976.717XSUNDAY RUNNERS ORANGE BELGIUM4:32:306:28 9.29521bx
977.940XENJOY LIEGE 4:32:336:28 9.29522bx
978.772XUCB CLUB - CSL SANS FRONT UCB PHARMA4:33:276:29 9.26523bx
979.803XLES 3 L PFIZER4:34:046:30 9.24524bx
980.311XEU TEAM GEH - SFM PILLARS 4:37:236:35 9.13223ax
981.1017XCM ZORG SMB CHRISTELIJKE MU4:37:576:36 9.11525bx
982.802XHAPPY FEET PFIZER4:38:526:37 9.08526bx
983.755XSPACEWELL SPACEWELL4:39:146:38 9.07527bx
984.982XTHE GLADIATORS 4:39:446:38 9.05528bx
985.1117ZAKIHAMA B 4:42:336:42 8.9631am
986.971XSUD LUX FINANCE SPRL 4:42:496:43 8.95529bx
987.1103THE RUNNING DEAD 3.0 4:42:526:43 8.9532am
988.946XBCC 1 4:45:286:46 8.87530bx
989.1068XYHAN BLAKE TEAM 9.69 ZORGBEDRIJF ANT4:45:346:47 8.87531bx
990.242XSTO LTD TEAM 1 STO LTD4:47:016:49 8.82532bx
991.981XH-W-H 4:51:266:55 8.69533bx
992.814XUP2RUN PFIZER4:51:296:55 8.69534bx
993.945XSAMBRE ET MEUSE 4:56:037:01 8.55535bx
DNF534XCREDENDO STN CREDENDObx
DNF1035XECOSIA FEDEX EXPRESSbx
DNF586FESG FESG BVBAbm
DNF645ISS TEAM 3 ISS FACILITY SEbm
DNF1132XLIDL HR bx
DNF925XLOS VENCEDORES bx
DNF948XTEAM BCC 3 bx
DNF: abandon; DSQ: disqualifié; Vitesse en km/h
24/02/2020 - 08:06 - 1003 Inputs
ChronoRace - Electronic Timing SPRL
http://www.chronorace.be

Page 20 / 21  
Adecco Brussels Ekiden
CAP Brussels, 19/10/2019, BEL
Ekiden - Resultaat
42.195km 
Categorie
PosNrNaamLeef.ClubTijdTkmGem.PlaatsNaamGemeente
DNF1124XTEAM KAREN ax
DNF790XVEOLIA05 VEOLIA NV-SAbx
DNF1060WHIRLPOOL II WHIRLPOOL BELUXbm
DNF: abandon; DSQ: disqualifié; Vitesse en km/h
24/02/2020 - 08:06 - 1003 Inputs
ChronoRace - Electronic Timing SPRL
http://www.chronorace.be

Page 21 / 21